TimeMST,TemperatureF,Dew PointF,Humidity,Sea Level PressureIn,VisibilityMPH,Wind Direction,Wind SpeedMPH,Gust SpeedMPH,PrecipitationIn,Events,Conditions,WindDirDegrees,DateUTC
12:08 AM,57.2,32.0,38,29.97,10.0,SSW,3.5,-,N/A,,Overcast,200,2013-01-27 07:08:00
12:18 AM,57.2,32.0,38,29.97,10.0,South,2.3,-,N/A,,Overcast,190,2013-01-27 07:18:00
12:28 AM,57.2,32.0,38,29.97,10.0,SSE,4.6,-,N/A,,Overcast,150,2013-01-27 07:28:00
12:58 AM,57.2,32.0,38,29.96,10.0,South,4.6,-,N/A,,Overcast,170,2013-01-27 07:58:00
1:08 AM,57.2,32.0,38,29.97,10.0,SSE,4.6,-,N/A,,Overcast,160,2013-01-27 08:08:00
1:28 AM,57.2,32.0,38,29.97,10.0,SSE,3.5,-,N/A,,Overcast,150,2013-01-27 08:28:00
1:48 AM,57.2,32.0,38,29.97,10.0,South,1.2,-,N/A,,Overcast,170,2013-01-27 08:48:00
1:58 AM,57.2,32.0,38,29.96,10.0,SSE,1.2,-,N/A,,Overcast,150,2013-01-27 08:58:00
2:28 AM,57.2,32.0,38,29.97,10.0,SSE,3.5,-,N/A,,Overcast,150,2013-01-27 09:28:00
2:58 AM,57.2,32.0,38,29.96,10.0,South,2.3,-,N/A,,Overcast,170,2013-01-27 09:58:00
3:38 AM,57.2,32.0,38,29.97,9.0,WSW,3.5,-,N/A,,Overcast,250,2013-01-27 10:38:00
3:51 AM,57.2,32.0,38,29.97,8.0,South,1.2,-,N/A,,Overcast,190,2013-01-27 10:51:00
3:58 AM,57.2,32.0,38,29.96,7.0,SSE,1.2,-,N/A,,Overcast,150,2013-01-27 10:58:00
4:08 AM,57.2,32.0,38,29.96,5.0,ESE,2.3,-,N/A,,Haze,120,2013-01-27 11:08:00
4:28 AM,57.2,32.0,38,29.96,9.0,ESE,2.3,-,N/A,,Overcast,120,2013-01-27 11:28:00
4:49 AM,57.2,32.0,38,29.96,9.0,ESE,3.5,-,N/A,,Overcast,120,2013-01-27 11:49:00
4:58 AM,57.2,32.0,38,29.95,7.0,SE,3.5,-,N/A,,Overcast,140,2013-01-27 11:58:00
5:08 AM,57.2,32.0,38,29.95,7.0,SE,3.5,-,N/A,,Overcast,130,2013-01-27 12:08:00
5:38 AM,57.2,32.0,38,29.95,5.0,SE,1.2,-,N/A,,Light Drizzle,140,2013-01-27 12:38:00
5:48 AM,57.2,32.0,38,29.95,6.0,SSE,2.3,-,N/A,,Haze,150,2013-01-27 12:48:00
5:55 AM,57.2,32.0,38,29.96,5.0,SSE,2.3,-,N/A,Rain,Light Rain,150,2013-01-27 12:55:00
5:58 AM,57.2,32.0,38,29.94,5.0,SSE,2.3,-,N/A,Rain,Light Rain,150,2013-01-27 12:58:00
6:08 AM,57.2,32.0,38,29.95,5.0,SE,2.3,-,N/A,,Light Drizzle,130,2013-01-27 13:08:00
6:18 AM,57.2,32.0,38,29.96,5.0,ESE,1.2,-,N/A,,Haze,110,2013-01-27 13:18:00
6:58 AM,57.2,32.0,38,29.96,5.0,Calm,Calm,-,N/A,,Haze,0,2013-01-27 13:58:00
7:08 AM,57.2,32.0,38,29.97,5.0,Calm,Calm,-,N/A,,Haze,0,2013-01-27 14:08:00
7:18 AM,57.2,32.0,38,29.97,4.0,Calm,Calm,-,N/A,,Haze,0,2013-01-27 14:18:00
7:28 AM,57.2,32.0,38,29.97,4.0,SE,2.3,-,N/A,,Haze,140,2013-01-27 14:28:00
7:48 AM,57.2,32.0,38,29.97,4.0,Calm,Calm,-,N/A,,Haze,0,2013-01-27 14:48:00
7:58 AM,57.2,32.0,38,29.97,5.0,Calm,Calm,-,N/A,,Haze,0,2013-01-27 14:58:00
8:08 AM,57.2,32.0,38,29.97,5.0,Calm,Calm,-,N/A,,Haze,0,2013-01-27 15:08:00
8:22 AM,57.2,32.0,38,29.97,5.0,Calm,Calm,-,N/A,,Haze,0,2013-01-27 15:22:00
8:42 AM,57.2,32.0,38,29.97,5.0,South,2.3,-,N/A,,Haze,170,2013-01-27 15:42:00
8:58 AM,57.2,32.0,38,29.97,5.0,SSE,1.2,-,N/A,,Haze,160,2013-01-27 15:58:00
9:58 AM,59.0,32.0,36,29.98,10.0,SE,5.8,-,N/A,,Overcast,140,2013-01-27 16:58:00
10:18 AM,59.0,32.0,36,29.99,10.0,SSE,5.8,-,N/A,,Mostly Cloudy,150,2013-01-27 17:18:00
10:38 AM,59.0,32.0,36,29.99,10.0,SSE,5.8,-,N/A,,Mostly Cloudy,150,2013-01-27 17:38:00
10:48 AM,59.0,32.0,36,29.99,10.0,SSE,4.6,-,N/A,,Overcast,160,2013-01-27 17:48:00
10:58 AM,59.0,32.0,36,29.98,10.0,SSE,4.6,-,N/A,,Overcast,160,2013-01-27 17:58:00
11:08 AM,60.8,32.0,34,29.99,10.0,SSE,3.5,-,N/A,,Overcast,150,2013-01-27 18:08:00
11:28 AM,60.8,32.0,34,29.98,9.0,SSE,3.5,-,N/A,Rain,Light Rain,160,2013-01-27 18:28:00
11:38 AM,60.8,32.0,34,29.98,10.0,SSE,5.8,-,N/A,,Mostly Cloudy,160,2013-01-27 18:38:00
11:58 AM,60.8,32.0,34,29.96,10.0,Variable,3.5,-,N/A,,Mostly Cloudy,0,2013-01-27 18:58:00
12:28 PM,62.6,32.0,32,29.96,10.0,SW,8.1,-,N/A,,Scattered Clouds,220,2013-01-27 19:28:00
12:58 PM,64.4,62.6,94,29.93,10.0,SSW,10.4,-,N/A,,Partly Cloudy,210,2013-01-27 19:58:00
1:28 PM,66.2,60.8,83,29.93,10.0,SW,12.7,-,N/A,,Mostly Cloudy,220,2013-01-27 20:28:00
1:38 PM,64.4,59.0,83,29.92,10.0,SSW,15.0,-,N/A,,Scattered Clouds,200,2013-01-27 20:38:00
1:48 PM,66.2,59.0,78,29.92,10.0,SSW,16.1,-,N/A,,Mostly Cloudy,210,2013-01-27 20:48:00
1:58 PM,65.7,58.8,79,29.91,10.0,SSW,13.8,-,N/A,,Scattered Clouds,210,2013-01-27 20:58:00
2:28 PM,66.2,57.2,73,29.91,10.0,SSW,15.0,-,N/A,,Mostly Cloudy,200,2013-01-27 21:28:00
2:48 PM,66.2,57.2,73,29.91,10.0,SW,12.7,-,N/A,,Scattered Clouds,220,2013-01-27 21:48:00
2:58 PM,66.6,56.8,71,29.90,10.0,SSW,12.7,-,N/A,,Scattered Clouds,210,2013-01-27 21:58:00
3:18 PM,66.2,57.2,73,29.91,10.0,WSW,16.1,-,N/A,,Mostly Cloudy,240,2013-01-27 22:18:00
3:28 PM,66.2,59.0,78,29.91,10.0,WSW,12.7,-,N/A,,Scattered Clouds,240,2013-01-27 22:28:00
3:58 PM,65.8,57.6,75,29.89,10.0,WSW,15.0,-,N/A,,Scattered Clouds,240,2013-01-27 22:58:00
4:08 PM,66.2,57.2,73,29.90,10.0,WSW,11.5,-,N/A,,Mostly Cloudy,240,2013-01-27 23:08:00
4:38 PM,66.2,59.0,78,29.90,10.0,SW,15.0,-,N/A,,Scattered Clouds,230,2013-01-27 23:38:00
4:58 PM,65.3,57.9,77,29.88,10.0,SW,12.7,-,N/A,,Clear,230,2013-01-27 23:58:00
5:58 PM,62.8,58.8,87,29.87,10.0,SW,9.2,-,N/A,,Clear,220,2013-01-28 00:58:00
6:58 PM,60.4,60.4,100,29.88,10.0,SW,9.2,-,N/A,,Scattered Clouds,220,2013-01-28 01:58:00
7:08 PM,60.8,60.8,100,29.90,10.0,SW,8.1,-,N/A,Rain,Light Rain,230,2013-01-28 02:08:00
7:58 PM,59.0,32.0,36,29.88,10.0,WSW,3.5,-,N/A,,Mostly Cloudy,250,2013-01-28 02:58:00
8:08 PM,59.0,32.0,36,29.90,10.0,SW,3.5,-,N/A,,Scattered Clouds,230,2013-01-28 03:08:00
8:58 PM,59.0,32.0,36,29.89,10.0,SSW,6.9,-,N/A,,Clear,200,2013-01-28 03:58:00
9:58 PM,57.2,32.0,38,29.88,10.0,SW,12.7,-,N/A,,Clear,220,2013-01-28 04:58:00
10:58 PM,57.2,32.0,38,29.88,10.0,SSW,10.4,-,N/A,,Scattered Clouds,210,2013-01-28 05:58:00
11:08 PM,57.2,32.0,38,29.89,10.0,SSW,10.4,-,N/A,,Mostly Cloudy,210,2013-01-28 06:08:00
11:28 PM,57.2,32.0,38,29.89,10.0,SSW,10.4,-,N/A,,Scattered Clouds,210,2013-01-28 06:28:00
11:58 PM,57.2,32.0,38,29.89,10.0,SW,11.5,-,N/A,,Scattered Clouds,220,2013-01-28 06:58:00